,,,PA_Meas_PMT16A,,PR_Meas_QMR101_102,,RH_Meas_QMH101,,SR_Meas_QMS101,,TA_Meas_QMH101,,GenWind,,GenWind,
date,time,status,PA,status,PR,status,RH,status,SR,status,TA,status,DirAvg,status,SpdAvg,
2009-06-30, 00:00:04,VALID,1000.98,VALID,0,VALID,85.6425,VALID,0,VALID,23.2719,VALID,314,VALID,0.896094,
2009-06-30, 00:01:04,VALID,1000.98,VALID,0,VALID,86.0392,VALID,0,VALID,23.1549,VALID,317,VALID,0.865625,
2009-06-30, 00:02:04,VALID,1000.97,VALID,0,VALID,86.6267,VALID,0,VALID,23.0786,VALID,325,VALID,0.917188,
2009-06-30, 00:03:04,VALID,1000.97,VALID,0,VALID,87.2066,VALID,0,VALID,22.9811,VALID,335,VALID,1.00195,
2009-06-30, 00:04:04,VALID,1000.94,VALID,0,VALID,87.939,VALID,0,VALID,22.8623,VALID,345,VALID,1.23281,
2009-06-30, 00:05:04,VALID,1000.93,VALID,0,VALID,88.5494,VALID,0,VALID,22.8037,VALID,345,VALID,1.18555,
2009-06-30, 00:06:04,VALID,1000.91,VALID,0,VALID,88.5951,VALID,0,VALID,22.825,VALID,345,VALID,1.15391,
2009-06-30, 00:07:04,VALID,1000.88,VALID,0,VALID,88.3052,VALID,0,VALID,22.864,VALID,345,VALID,0.956641,
2009-06-30, 00:08:04,VALID,1000.89,VALID,0,VALID,88.5036,VALID,0,VALID,22.786,VALID,350,VALID,1.23516,
2009-06-30, 00:09:04,VALID,1000.86,VALID,0,VALID,88.4044,VALID,0,VALID,22.7257,VALID,355,VALID,1.30039,
2009-06-30, 00:10:04,VALID,1000.87,VALID,0,VALID,88.2137,VALID,0,VALID,22.6867,VALID,357,VALID,0.776953,
2009-06-30, 00:11:04,VALID,1000.9,VALID,0,VALID,88.1755,VALID,0,VALID,22.7079,VALID,31,VALID,1.17539,
2009-06-30, 00:12:04,VALID,1000.9,VALID,0,VALID,88.0229,VALID,0,VALID,22.7469,VALID,37,VALID,1.32891,
2009-06-30, 00:13:04,VALID,1000.89,VALID,0,VALID,87.0921,VALID,0,VALID,22.8835,VALID,45,VALID,1.20586,
2009-06-30, 00:14:04,VALID,1000.89,VALID,0,VALID,86.6649,VALID,0,VALID,23.0006,VALID,59,VALID,1.84883,
2009-06-30, 00:15:04,VALID,1000.87,VALID,0,VALID,86.0011,VALID,0,VALID,23.1566,VALID,44,VALID,1.54023,
2009-06-30, 00:16:04,VALID,1000.89,VALID,0,VALID,86.1384,VALID,0,VALID,23.1939,VALID,49,VALID,1.13437,
2009-06-30, 00:17:04,VALID,1000.91,VALID,0,VALID,85.9934,VALID,0,VALID,23.1957,VALID,56,VALID,1.04414,
2009-06-30, 00:18:04,VALID,1000.93,VALID,0,VALID,86.1308,VALID,0,VALID,23.1744,VALID,31,VALID,1.16133,
2009-06-30, 00:19:04,VALID,1000.94,VALID,0,VALID,86.3978,VALID,0,VALID,23.1549,VALID,35,VALID,1.23281,
2009-06-30, 00:20:04,VALID,1000.92,VALID,0,VALID,87.0082,VALID,0,VALID,23.0981,VALID,36,VALID,1.11875,
2009-06-30, 00:21:04,VALID,1000.9,VALID,0,VALID,87.2294,VALID,0,VALID,23.0201,VALID,34,VALID,0.599219,
2009-06-30, 00:22:04,VALID,1000.9,VALID,0,VALID,87.4583,VALID,0,VALID,22.9225,VALID,30,VALID,0.414063,
2009-06-30, 00:23:04,VALID,1000.86,VALID,0,VALID,87.9543,VALID,0,VALID,22.8037,VALID,29,VALID,0.372266,
2009-06-30, 00:24:04,VALID,1000.88,VALID,0,VALID,88.4197,VALID,0,VALID,22.7647,VALID,29,VALID,0.277344,
2009-06-30, 00:25:04,VALID,1000.9,VALID,0,VALID,88.7554,VALID,0,VALID,22.7469,VALID,29,VALID,0.236719,
2009-06-30, 00:26:04,VALID,1000.87,VALID,0,VALID,88.9003,VALID,0,VALID,22.7274,VALID,29,VALID,0.233594,
2009-06-30, 00:27:04,VALID,1000.85,VALID,0,VALID,88.9003,VALID,0,VALID,22.7062,VALID,29,VALID,0.167187,
2009-06-30, 00:28:04,VALID,1000.85,VALID,0,VALID,88.824,VALID,0,VALID,22.7274,VALID,29,VALID,0,
2009-06-30, 00:29:04,VALID,1000.82,VALID,0,VALID,88.7325,VALID,0,VALID,22.7274,VALID,29,VALID,0,
2009-06-30, 00:30:04,VALID,1000.83,VALID,0,VALID,89.0377,VALID,0,VALID,22.6867,VALID,29,VALID,0.100781,
2009-06-30, 00:31:04,VALID,1000.77,VALID,0,VALID,89.2132,VALID,0,VALID,22.7079,VALID,29,VALID,0.277344,
2009-06-30, 00:32:04,VALID,1000.78,VALID,0,VALID,89.2818,VALID,0,VALID,22.6867,VALID,29,VALID,0.410937,
2009-06-30, 00:33:04,VALID,1000.77,VALID,0,VALID,89.3276,VALID,0,VALID,22.6884,VALID,29,VALID,0.347656,
2009-06-30, 00:34:04,VALID,1000.78,VALID,0,VALID,89.2513,VALID,0,VALID,22.6672,VALID,29,VALID,0.426953,
2009-06-30, 00:35:04,VALID,1000.79,VALID,0,VALID,89.4344,VALID,0,VALID,22.6884,VALID,34,VALID,0.587109,
2009-06-30, 00:36:04,VALID,1000.75,VALID,0,VALID,89.8998,VALID,0,VALID,22.6867,VALID,59,VALID,0.639453,
2009-06-30, 00:37:04,VALID,1000.75,VALID,0,VALID,89.8846,VALID,0,VALID,22.7079,VALID,83,VALID,0.760938,
2009-06-30, 00:38:04,VALID,1000.78,VALID,0,VALID,89.5336,VALID,0,VALID,22.7469,VALID,96,VALID,0.9375,
2009-06-30, 00:39:04,VALID,1000.73,VALID,0,VALID,89.4497,VALID,0,VALID,22.7664,VALID,99,VALID,0.861719,
2009-06-30, 00:40:04,VALID,1000.75,VALID,0,VALID,89.5183,VALID,0,VALID,22.7664,VALID,99,VALID,0.743359,
2009-06-30, 00:41:04,VALID,1000.73,VALID,0,VALID,89.3276,VALID,0,VALID,22.7469,VALID,95,VALID,0.710156,
2009-06-30, 00:42:04,VALID,1000.7,VALID,0,VALID,89.2284,VALID,0,VALID,22.7274,VALID,95,VALID,0.610156,
2009-06-30, 00:43:04,VALID,1000.68,VALID,0,VALID,89.3963,VALID,0,VALID,22.7079,VALID,95,VALID,0.662109,
2009-06-30, 00:44:04,VALID,1000.69,VALID,0,VALID,89.6023,VALID,0,VALID,22.6672,VALID,95,VALID,0.403125,
2009-06-30, 00:45:04,VALID,1000.65,VALID,0,VALID,89.6709,VALID,0,VALID,22.6689,VALID,95,VALID,0.283594,
2009-06-30, 00:46:04,VALID,1000.66,VALID,0,VALID,89.6709,VALID,0,VALID,22.6299,VALID,95,VALID,0.0855469,
2009-06-30, 00:47:04,VALID,1000.67,VALID,0,VALID,89.8159,VALID,0,VALID,22.6104,VALID,95,VALID,0.207422,
2009-06-30, 00:48:04,VALID,1000.63,VALID,0,VALID,89.8922,VALID,0,VALID,22.5714,VALID,95,VALID,0.00117188,
2009-06-30, 00:49:04,VALID,1000.61,VALID,0,VALID,90.1211,VALID,0,VALID,22.5519,VALID,95,VALID,0.365234,
2009-06-30, 00:50:04,VALID,1000.61,VALID,0,VALID,90.4034,VALID,0,VALID,22.5323,VALID,95,VALID,0.475391,
2009-06-30, 00:51:04,VALID,1000.63,VALID,0,VALID,90.617,VALID,0,VALID,22.5128,VALID,95,VALID,0.353125,
2009-06-30, 00:52:04,VALID,1000.6,VALID,0,VALID,90.4949,VALID,0,VALID,22.5128,VALID,95,VALID,0.373437,
2009-06-30, 00:53:04,VALID,1000.58,VALID,0,VALID,90.4568,VALID,0,VALID,22.5111,VALID,95,VALID,0.484375,
2009-06-30, 00:54:04,VALID,1000.56,VALID,0,VALID,90.3652,VALID,0,VALID,22.5519,VALID,95,VALID,0.469922,
2009-06-30, 00:55:04,VALID,1000.53,VALID,0,VALID,90.5102,VALID,0,VALID,22.5519,VALID,95,VALID,0.474609,
2009-06-30, 00:56:04,VALID,1000.51,VALID,0,VALID,90.617,VALID,0.112286,VALID,22.5696,VALID,95,VALID,0.377734,
2009-06-30, 00:57:04,VALID,1000.53,VALID,0,VALID,90.5483,VALID,0,VALID,22.5696,VALID,95,VALID,0.196484,
2009-06-30, 00:58:04,VALID,1000.5,VALID,0,VALID,90.4568,VALID,0,VALID,22.5714,VALID,95,VALID,0.103516,
2009-06-30, 00:59:04,VALID,1000.48,VALID,0,VALID,90.3957,VALID,0,VALID,22.5111,VALID,95,VALID,0,
2009-06-30, 01:00:04,VALID,1000.47,VALID,0,VALID,90.5254,VALID,0,VALID,22.4916,VALID,95,VALID,0.242578,
2009-06-30, 01:01:04,VALID,1000.45,VALID,0,VALID,90.7314,VALID,0,VALID,22.4738,VALID,95,VALID,0.372656,
2009-06-30, 01:02:04,VALID,1000.42,VALID,0,VALID,90.8688,VALID,0,VALID,22.4331,VALID,16,VALID,0.478516,
2009-06-30, 01:03:04,VALID,1000.43,VALID,0,VALID,91.0748,VALID,0,VALID,22.4136,VALID,16,VALID,0.438672,
2009-06-30, 01:04:04,VALID,1000.42,VALID,0,VALID,91.1816,VALID,0,VALID,22.3941,VALID,16,VALID,0.422266,
2009-06-30, 01:05:04,VALID,1000.41,VALID,0,VALID,91.3113,VALID,0,VALID,22.3941,VALID,16,VALID,0.495703,
2009-06-30, 01:06:04,VALID,1000.42,VALID,0,VALID,91.3952,VALID,0,VALID,22.3746,VALID,16,VALID,0.533594,
2009-06-30, 01:07:04,VALID,1000.43,VALID,0,VALID,91.38,VALID,0,VALID,22.3746,VALID,16,VALID,0.419141,
2009-06-30, 01:08:04,VALID,1000.41,VALID,0,VALID,91.4868,VALID,0,VALID,22.3356,VALID,16,VALID,0.192188,
2009-06-30, 01:09:04,VALID,1000.42,VALID,0,VALID,91.6928,VALID,0,VALID,22.3356,VALID,16,VALID,0.277344,
2009-06-30, 01:10:04,VALID,1000.43,VALID,0,VALID,91.6394,VALID,0,VALID,22.3161,VALID,16,VALID,0.133203,
2009-06-30, 01:11:04,VALID,1000.43,VALID,0,VALID,91.8454,VALID,0,VALID,22.2966,VALID,16,VALID,0,
2009-06-30, 01:12:04,VALID,1000.45,VALID,0,VALID,91.9293,VALID,0,VALID,22.2966,VALID,16,VALID,0.226172,
2009-06-30, 01:13:04,VALID,1000.41,VALID,0,VALID,91.4868,VALID,0,VALID,22.2771,VALID,18,VALID,0.576563,
2009-06-30, 01:14:04,VALID,1000.42,VALID,0,VALID,91.8454,VALID,0,VALID,22.3161,VALID,90,VALID,0.805469,
2009-06-30, 01:15:04,VALID,1000.41,VALID,0,VALID,91.2731,VALID,0,VALID,22.3551,VALID,91,VALID,1.15117,
2009-06-30, 01:16:04,VALID,1000.43,VALID,0,VALID,90.7849,VALID,0,VALID,22.4738,VALID,92,VALID,1.48984,
2009-06-30, 01:17:04,VALID,1000.41,VALID,0,VALID,89.8998,VALID,0,VALID,22.5714,VALID,89,VALID,1.53516,
2009-06-30, 01:18:04,VALID,1000.46,VALID,0,VALID,89.5489,VALID,0,VALID,22.6104,VALID,92,VALID,1.44687,
2009-06-30, 01:19:04,VALID,1000.45,VALID,0,VALID,89.2971,VALID,0,VALID,22.6087,VALID,97,VALID,1.13281,
2009-06-30, 01:20:04,VALID,1000.48,VALID,0,VALID,89.5641,VALID,0,VALID,22.6104,VALID,110,VALID,1.07773,
2009-06-30, 01:21:04,VALID,1000.48,VALID,0,VALID,89.6404,VALID,0,VALID,22.5892,VALID,113,VALID,1.02305,
2009-06-30, 01:22:04,VALID,1000.45,VALID,0,VALID,89.7396,VALID,0,VALID,22.6087,VALID,110,VALID,0.973437,
2009-06-30, 01:23:04,VALID,1000.5,VALID,0,VALID,89.7167,VALID,0,VALID,22.6087,VALID,111,VALID,1.22148,
2009-06-30, 01:24:04,VALID,1000.46,VALID,0,VALID,89.7777,VALID,0,VALID,22.6282,VALID,112,VALID,1.60547,
2009-06-30, 01:25:04,VALID,1000.48,VALID,0,VALID,89.8922,VALID,0,VALID,22.6672,VALID,116,VALID,1.41758,
2009-06-30, 01:26:04,VALID,1000.47,VALID,0,VALID,89.648,VALID,0,VALID,22.7062,VALID,107,VALID,1.26328,
2009-06-30, 01:27:04,VALID,1000.45,VALID,0,VALID,89.5489,VALID,0,VALID,22.7257,VALID,110,VALID,1.0707,
2009-06-30, 01:28:04,VALID,1000.44,VALID,0,VALID,89.6786,VALID,0,VALID,22.7452,VALID,114,VALID,1.16992,
2009-06-30, 01:29:04,VALID,1000.43,VALID,0,VALID,89.6633,VALID,0,VALID,22.7664,VALID,115,VALID,1.36055,
2009-06-30, 01:30:04,VALID,1000.42,VALID,0,VALID,89.7243,VALID,0,VALID,22.7842,VALID,114,VALID,1.74883,
2009-06-30, 01:31:04,VALID,1000.44,VALID,0,VALID,89.2666,VALID,0,VALID,22.8427,VALID,104,VALID,2.17031,
2009-06-30, 01:32:04,VALID,1000.43,VALID,0,VALID,88.8469,VALID,0,VALID,22.9615,VALID,106,VALID,1.9207,
2009-06-30, 01:33:04,VALID,1000.44,VALID,0,VALID,87.6949,VALID,0,VALID,23.0396,VALID,114,VALID,2.12461,
2009-06-30, 01:34:04,VALID,1000.47,VALID,0,VALID,87.054,VALID,0,VALID,23.1744,VALID,111,VALID,1.78008,
2009-06-30, 01:35:04,VALID,1000.44,VALID,0,VALID,86.6038,VALID,0,VALID,23.2915,VALID,106,VALID,1.71211,
2009-06-30, 01:36:04,VALID,1000.46,VALID,0,VALID,86.23,VALID,0,VALID,23.3695,VALID,107,VALID,1.82344,
2009-06-30, 01:37:04,VALID,1000.47,VALID,0,VALID,86.0163,VALID,0,VALID,23.428,VALID,109,VALID,1.84531,
2009-06-30, 01:38:04,VALID,1000.47,VALID,0,VALID,86.0087,VALID,0,VALID,23.4493,VALID,103,VALID,1.70273,
2009-06-30, 01:39:04,VALID,1000.47,VALID,0,VALID,86.1155,VALID,0,VALID,23.4493,VALID,105,VALID,1.64023,
2009-06-30, 01:40:04,VALID,1000.45,VALID,0,VALID,86.2452,VALID,0,VALID,23.4085,VALID,107,VALID,1.6707,
2009-06-30, 01:41:04,VALID,1000.49,VALID,0,VALID,86.2376,VALID,0,VALID,23.389,VALID,106,VALID,2.06875,
2009-06-30, 01:42:04,VALID,1000.47,VALID,0,VALID,86.2071,VALID,0,VALID,23.3908,VALID,106,VALID,2.07578,
2009-06-30, 01:43:04,VALID,1000.44,VALID,0,VALID,86.1232,VALID,0,VALID,23.3695,VALID,107,VALID,1.95859,
2009-06-30, 01:44:04,VALID,1000.45,VALID,0,VALID,86.2529,VALID,0,VALID,23.3695,VALID,107,VALID,1.82187,
2009-06-30, 01:45:04,VALID,1000.45,VALID,0,VALID,86.5123,VALID,0,VALID,23.3713,VALID,110,VALID,1.64453,
2009-06-30, 01:46:04,VALID,1000.45,VALID,0,VALID,86.8251,VALID,0,VALID,23.3323,VALID,114,VALID,1.4375,
2009-06-30, 01:47:04,VALID,1000.42,VALID,0,VALID,87.115,VALID,0,VALID,23.2524,VALID,112,VALID,1.81602,
2009-06-30, 01:48:04,VALID,1000.41,VALID,0,VALID,87.26,VALID,0,VALID,23.1939,VALID,107,VALID,1.60977,
2009-06-30, 01:49:04,VALID,1000.39,VALID,0,VALID,87.4278,VALID,0,VALID,23.1957,VALID,107,VALID,1.67266,
2009-06-30, 01:50:04,VALID,1000.4,VALID,0,VALID,87.5575,VALID,0,VALID,23.1549,VALID,111,VALID,1.39297,
2009-06-30, 01:51:04,VALID,1000.39,VALID,0,VALID,87.672,VALID,0,VALID,23.1159,VALID,106,VALID,1.45391,
2009-06-30, 01:52:04,VALID,1000.39,VALID,0,VALID,87.7559,VALID,0,VALID,23.1159,VALID,102,VALID,1.2543,
2009-06-30, 01:53:04,VALID,1000.41,VALID,0,VALID,87.8398,VALID,0,VALID,23.0964,VALID,105,VALID,1.18086,
2009-06-30, 01:54:04,VALID,1000.45,VALID,0,VALID,87.9619,VALID,0,VALID,23.0769,VALID,102,VALID,0.880859,
2009-06-30, 01:55:04,VALID,1000.46,VALID,0,VALID,88.0611,VALID,0,VALID,23.0378,VALID,111,VALID,0.847266,
2009-06-30, 01:56:04,VALID,1000.47,VALID,0,VALID,88.1603,VALID,0,VALID,23.0396,VALID,108,VALID,0.352344,
2009-06-30, 01:57:04,VALID,1000.48,VALID,0,VALID,88.1908,VALID,0,VALID,22.9988,VALID,110,VALID,0.227344,
2009-06-30, 01:58:04,VALID,1000.47,VALID,0,VALID,88.2366,VALID,0,VALID,22.9598,VALID,110,VALID,0.157031,
2009-06-30, 01:59:04,VALID,1000.44,VALID,0,VALID,88.3281,VALID,0,VALID,22.9208,VALID,49,VALID,0.360156,
2009-06-30, 02:00:04,VALID,1000.46,VALID,0,VALID,88.3663,VALID,0,VALID,22.8818,VALID,27,VALID,0.416406,
2009-06-30, 02:01:04,VALID,1000.44,VALID,0,VALID,88.618,VALID,0,VALID,22.864,VALID,8,VALID,0.457812,
2009-06-30, 02:02:04,VALID,1000.42,VALID,0,VALID,88.9309,VALID,0,VALID,22.7842,VALID,4,VALID,0.641406,
2009-06-30, 02:03:04,VALID,1000.43,VALID,0,VALID,89.2437,VALID,0,VALID,22.786,VALID,348,VALID,0.771484,
2009-06-30, 02:04:04,VALID,1000.4,VALID,0,VALID,89.4268,VALID,0,VALID,22.7664,VALID,348,VALID,0.519141,
2009-06-30, 02:05:04,VALID,1000.39,VALID,0,VALID,89.6023,VALID,0,VALID,22.7257,VALID,348,VALID,0.595312,
2009-06-30, 02:06:04,VALID,1000.43,VALID,0,VALID,89.6328,VALID,0,VALID,22.6867,VALID,348,VALID,0.388281,
2009-06-30, 02:07:04,VALID,1000.4,VALID,0,VALID,89.7854,VALID,0,VALID,22.6884,VALID,348,VALID,0.371094,
2009-06-30, 02:08:04,VALID,1000.39,VALID,0,VALID,89.8998,VALID,0,VALID,22.6494,VALID,348,VALID,0.269922,
2009-06-30, 02:09:04,VALID,1000.37,VALID,0,VALID,89.938,VALID,0,VALID,22.6282,VALID,348,VALID,0,
2009-06-30, 02:10:04,VALID,1000.38,VALID,0,VALID,89.9761,VALID,0,VALID,22.6087,VALID,348,VALID,0.133984,
2009-06-30, 02:11:04,VALID,1000.37,VALID,0,VALID,90.0677,VALID,0,VALID,22.5892,VALID,348,VALID,0.370703,
2009-06-30, 02:12:04,VALID,1000.37,VALID,0,VALID,90.0448,VALID,0,VALID,22.5696,VALID,348,VALID,0.361328,
2009-06-30, 02:13:04,VALID,1000.36,VALID,0,VALID,90.144,VALID,0,VALID,22.5696,VALID,348,VALID,0.324609,
2009-06-30, 02:14:04,VALID,1000.37,VALID,0,VALID,89.8998,VALID,0,VALID,22.6087,VALID,12,VALID,0.365234,
2009-06-30, 02:15:04,VALID,1000.34,VALID,0,VALID,89.6023,VALID,0,VALID,22.6282,VALID,43,VALID,0.802734,
2009-06-30, 02:16:04,VALID,1000.34,VALID,0,VALID,89.1216,VALID,0,VALID,22.7079,VALID,56,VALID,0.814453,
2009-06-30, 02:17:04,VALID,1000.36,VALID,0,VALID,88.5341,VALID,0,VALID,22.8232,VALID,78,VALID,1.00742,
2009-06-30, 02:18:04,VALID,1000.31,VALID,0,VALID,87.9695,VALID,0,VALID,22.9225,VALID,85,VALID,0.978906,
2009-06-30, 02:19:04,VALID,1000.31,VALID,0,VALID,87.5804,VALID,0,VALID,22.9793,VALID,68,VALID,0.951172,
2009-06-30, 02:20:04,VALID,1000.28,VALID,0,VALID,87.3744,VALID,0,VALID,23.0183,VALID,56,VALID,1.07617,
2009-06-30, 02:21:04,VALID,1000.3,VALID,0,VALID,87.2142,VALID,0,VALID,23.0183,VALID,55,VALID,0.99375,
2009-06-30, 02:22:04,VALID,1000.29,VALID,0,VALID,87.3057,VALID,0,VALID,22.9793,VALID,55,VALID,0.885156,
2009-06-30, 02:23:04,VALID,1000.31,VALID,0,VALID,87.5957,VALID,0,VALID,22.9208,VALID,61,VALID,1.01328,
2009-06-30, 02:24:04,VALID,1000.29,VALID,0,VALID,87.8474,VALID,0,VALID,22.8818,VALID,73,VALID,0.833594,
2009-06-30, 02:25:04,VALID,1000.26,VALID,0,VALID,88.1068,VALID,0,VALID,22.8818,VALID,71,VALID,0.653906,
2009-06-30, 02:26:04,VALID,1000.27,VALID,0,VALID,87.878,VALID,0,VALID,22.8427,VALID,70,VALID,0.401172,
2009-06-30, 02:27:04,VALID,1000.28,VALID,0,VALID,88.0382,VALID,0,VALID,22.8037,VALID,66,VALID,0.326172,
2009-06-30, 02:28:04,VALID,1000.28,VALID,0,VALID,88.3129,VALID,0,VALID,22.7664,VALID,40,VALID,0.536328,
2009-06-30, 02:29:04,VALID,1000.26,VALID,0,VALID,88.9003,VALID,0,VALID,22.6672,VALID,17,VALID,0.822656,
2009-06-30, 02:30:04,VALID,1000.26,VALID,0,VALID,89.3505,VALID,0,VALID,22.6477,VALID,360,VALID,0.903516,
2009-06-30, 02:31:04,VALID,1000.25,VALID,0,VALID,89.7472,VALID,0,VALID,22.6299,VALID,360,VALID,0.964453,
2009-06-30, 02:32:04,VALID,1000.25,VALID,0,VALID,89.938,VALID,0,VALID,22.5892,VALID,360,VALID,0.953516,
2009-06-30, 02:33:04,VALID,1000.24,VALID,0,VALID,90.1287,VALID,0,VALID,22.5696,VALID,360,VALID,0.717578,
2009-06-30, 02:34:04,VALID,1000.25,VALID,0,VALID,90.1821,VALID,0,VALID,22.5519,VALID,360,VALID,0.468359,
2009-06-30, 02:35:04,VALID,1000.26,VALID,0,VALID,90.2584,VALID,0,VALID,22.5323,VALID,360,VALID,0.214062,
2009-06-30, 02:36:04,VALID,1000.22,VALID,0,VALID,90.4339,VALID,0,VALID,22.4916,VALID,360,VALID,0.54375,
2009-06-30, 02:37:04,VALID,1000.21,VALID,0,VALID,90.4797,VALID,0,VALID,22.4933,VALID,360,VALID,0.518359,
2009-06-30, 02:38:04,VALID,1000.17,VALID,0,VALID,90.7162,VALID,0,VALID,22.4526,VALID,360,VALID,0.482031,
2009-06-30, 02:39:04,VALID,1000.21,VALID,0,VALID,90.6551,VALID,0,VALID,22.4331,VALID,360,VALID,0.295703,
2009-06-30, 02:40:04,VALID,1000.2,VALID,0,VALID,90.8077,VALID,0,VALID,22.4136,VALID,360,VALID,0.194922,
2009-06-30, 02:41:04,VALID,1000.19,VALID,0,VALID,90.9298,VALID,0,VALID,22.3958,VALID,360,VALID,0.00742187,
2009-06-30, 02:42:04,VALID,1000.18,VALID,0,VALID,91.1129,VALID,0,VALID,22.3746,VALID,360,VALID,0.255078,
2009-06-30, 02:43:04,VALID,1000.15,VALID,0,VALID,91.3571,VALID,0,VALID,22.3958,VALID,360,VALID,0.341406,
2009-06-30, 02:44:04,VALID,1000.16,VALID,0,VALID,91.5554,VALID,0,VALID,22.4136,VALID,360,VALID,0.472656,
2009-06-30, 02:45:04,VALID,1000.15,VALID,0,VALID,91.5402,VALID,0,VALID,22.4543,VALID,360,VALID,0.440234,
2009-06-30, 02:46:04,VALID,1000.17,VALID,0,VALID,91.441,VALID,0,VALID,22.4916,VALID,355,VALID,0.4125,
2009-06-30, 02:47:04,VALID,1000.18,VALID,0,VALID,90.9146,VALID,0,VALID,22.5501,VALID,194,VALID,0.374609,
2009-06-30, 02:48:04,VALID,1000.2,VALID,0,VALID,90.205,VALID,0.112286,VALID,22.6299,VALID,159,VALID,0.573438,
2009-06-30, 02:49:04,VALID,1000.21,VALID,0,VALID,89.6328,VALID,0,VALID,22.6672,VALID,159,VALID,0.185547,
2009-06-30, 02:50:04,VALID,1000.2,VALID,0,VALID,89.6023,VALID,0,VALID,22.7062,VALID,228,VALID,0.461719,
2009-06-30, 02:51:04,VALID,1000.24,VALID,0,VALID,89.7091,VALID,0,VALID,22.6672,VALID,228,VALID,0.450391,
2009-06-30, 02:52:04,VALID,1000.25,VALID,0,VALID,89.8846,VALID,0,VALID,22.6299,VALID,228,VALID,0.333594,
2009-06-30, 02:53:04,VALID,1000.24,VALID,0,VALID,90.205,VALID,0,VALID,22.6104,VALID,231,VALID,0.573047,
2009-06-30, 02:54:04,VALID,1000.23,VALID,0,VALID,90.1668,VALID,0,VALID,22.6104,VALID,240,VALID,0.396484,
2009-06-30, 02:55:04,VALID,1000.28,VALID,0,VALID,90.0677,VALID,0,VALID,22.5892,VALID,222,VALID,0.330078,
2009-06-30, 02:56:04,VALID,1000.26,VALID,0,VALID,89.8769,VALID,0,VALID,22.5892,VALID,168,VALID,0.666406,
2009-06-30, 02:57:04,VALID,1000.23,VALID,0,VALID,89.3047,VALID,0,VALID,22.6884,VALID,178,VALID,1.10703,
2009-06-30, 02:58:04,VALID,1000.22,VALID,0,VALID,87.7559,VALID,0,VALID,22.864,VALID,156,VALID,1.65352,
2009-06-30, 02:59:04,VALID,1000.24,VALID,0,VALID,86.2605,VALID,0,VALID,23.0769,VALID,143,VALID,1.5582,
2009-06-30, 03:00:04,VALID,1000.2,VALID,0,VALID,85.3907,VALID,0,VALID,23.2347,VALID,130,VALID,1.45469,
2009-06-30, 03:01:04,VALID,1000.2,VALID,0,VALID,84.9711,VALID,0,VALID,23.3713,VALID,126,VALID,1.18516,
2009-06-30, 03:02:04,VALID,1000.19,VALID,0,VALID,84.5667,VALID,0,VALID,23.389,VALID,116,VALID,1.43945,
2009-06-30, 03:03:04,VALID,1000.19,VALID,0,VALID,84.4141,VALID,0,VALID,23.4103,VALID,116,VALID,1.16172,
2009-06-30, 03:04:04,VALID,1000.18,VALID,0,VALID,84.5591,VALID,0,VALID,23.389,VALID,115,VALID,0.86875,
2009-06-30, 03:05:04,VALID,1000.18,VALID,0,VALID,85.0245,VALID,0,VALID,23.35,VALID,164,VALID,0.892969,
2009-06-30, 03:06:04,VALID,1000.21,VALID,0,VALID,85.0092,VALID,0,VALID,23.3323,VALID,164,VALID,1.15937,
2009-06-30, 03:07:04,VALID,1000.2,VALID,0,VALID,84.994,VALID,0,VALID,23.3518,VALID,163,VALID,1.22305,
2009-06-30, 03:08:04,VALID,1000.2,VALID,0,VALID,85.322,VALID,0,VALID,23.3713,VALID,178,VALID,1.12617,
2009-06-30, 03:09:04,VALID,1000.18,VALID,0,VALID,85.8027,VALID,0,VALID,23.3713,VALID,239,VALID,1.47383,
2009-06-30, 03:10:04,VALID,1000.18,VALID,0,VALID,86.23,VALID,0,VALID,23.2932,VALID,233,VALID,1.03789,
2009-06-30, 03:11:04,VALID,1000.19,VALID,0,VALID,86.5962,VALID,0,VALID,23.2134,VALID,218,VALID,0.987109,
2009-06-30, 03:12:04,VALID,1000.16,VALID,0,VALID,86.6191,VALID,0,VALID,23.1957,VALID,217,VALID,0.85,
2009-06-30, 03:13:04,VALID,1000.15,VALID,0,VALID,86.4283,VALID,0,VALID,23.1939,VALID,218,VALID,0.892578,
2009-06-30, 03:14:04,VALID,1000.13,VALID,0,VALID,86.2757,VALID,0,VALID,23.1939,VALID,218,VALID,0.454688,
2009-06-30, 03:15:04,VALID,1000.08,VALID,0,VALID,86.1994,VALID,0,VALID,23.2152,VALID,218,VALID,0.304297,
2009-06-30, 03:16:04,VALID,1000.11,VALID,0,VALID,86.2986,VALID,0,VALID,23.1939,VALID,218,VALID,0.185547,
2009-06-30, 03:17:04,VALID,1000.09,VALID,0,VALID,86.497,VALID,0,VALID,23.1957,VALID,218,VALID,0.420703,
2009-06-30, 03:18:04,VALID,1000.09,VALID,0,VALID,86.5962,VALID,0,VALID,23.1762,VALID,206,VALID,0.766797,
2009-06-30, 03:19:04,VALID,1000.09,VALID,0,VALID,86.6725,VALID,0,VALID,23.1549,VALID,204,VALID,0.560938,
2009-06-30, 03:20:04,VALID,1000.12,VALID,0,VALID,86.703,VALID,0,VALID,23.1939,VALID,157,VALID,0.526172,
2009-06-30, 03:21:04,VALID,1000.13,VALID,0,VALID,86.6191,VALID,0,VALID,23.1354,VALID,145,VALID,0.733594,
2009-06-30, 03:22:04,VALID,1000.13,VALID,0,VALID,87.1837,VALID,0,VALID,23.0591,VALID,153,VALID,0.764844,
2009-06-30, 03:23:04,VALID,1000.14,VALID,0,VALID,87.527,VALID,0,VALID,22.9811,VALID,132,VALID,0.903516,
2009-06-30, 03:24:04,VALID,1000.13,VALID,0,VALID,88,VALID,0,VALID,22.8623,VALID,161,VALID,1.07383,
2009-06-30, 03:25:04,VALID,1000.09,VALID,0,VALID,88.3052,VALID,0,VALID,22.864,VALID,195,VALID,0.670313,
2009-06-30, 03:26:04,VALID,1000.12,VALID,0,VALID,88.1603,VALID,0,VALID,22.8427,VALID,195,VALID,0.236719,
2009-06-30, 03:27:04,VALID,1000.09,VALID,0,VALID,88.084,VALID,0,VALID,22.8445,VALID,195,VALID,0.359766,
2009-06-30, 03:28:04,VALID,1000.12,VALID,0,VALID,87.8627,VALID,0,VALID,22.7647,VALID,58,VALID,0.723437,
2009-06-30, 03:29:04,VALID,1000.11,VALID,0,VALID,88.3205,VALID,0,VALID,22.7079,VALID,100,VALID,0.733984,
2009-06-30, 03:30:04,VALID,1000.14,VALID,0,VALID,89.236,VALID,0,VALID,22.6477,VALID,120,VALID,1.03594,
2009-06-30, 03:31:04,VALID,1000.14,VALID,0,VALID,89.2818,VALID,0,VALID,22.6282,VALID,114,VALID,0.776953,
2009-06-30, 03:32:04,VALID,1000.15,VALID,0,VALID,89.0987,VALID,0,VALID,22.5696,VALID,75,VALID,0.838281,
2009-06-30, 03:33:04,VALID,1000.14,VALID,0,VALID,88.9919,VALID,0,VALID,22.5306,VALID,75,VALID,0.465234,
2009-06-30, 03:34:04,VALID,1000.14,VALID,0,VALID,88.9461,VALID,0,VALID,22.4916,VALID,75,VALID,0.102734,
2009-06-30, 03:35:04,VALID,1000.14,VALID,0,VALID,88.5723,VALID,0,VALID,22.4136,VALID,75,VALID,0.173047,
2009-06-30, 03:36:04,VALID,1000.11,VALID,0,VALID,89.3428,VALID,0,VALID,22.3551,VALID,75,VALID,0.0898438,
2009-06-30, 03:37:04,VALID,1000.11,VALID,0,VALID,89.9303,VALID,0,VALID,22.3763,VALID,75,VALID,0.178516,
2009-06-30, 03:38:04,VALID,1000.11,VALID,0,VALID,90.205,VALID,0,VALID,22.3551,VALID,57,VALID,0.652734,
2009-06-30, 03:39:04,VALID,1000.07,VALID,0,VALID,89.9151,VALID,0,VALID,22.3763,VALID,56,VALID,0.778906,
2009-06-30, 03:40:04,VALID,1000.06,VALID,0,VALID,89.6862,VALID,0,VALID,22.3373,VALID,43,VALID,0.685547,
2009-06-30, 03:41:04,VALID,1000.05,VALID,0,VALID,89.6938,VALID,0,VALID,22.2788,VALID,42,VALID,0.517187,
2009-06-30, 03:42:04,VALID,1000.06,VALID,0,VALID,89.9456,VALID,0,VALID,22.1795,VALID,30,VALID,0.796875,
2009-06-30, 03:43:04,VALID,1000.06,VALID,0,VALID,90.5483,VALID,0,VALID,22.1015,VALID,30,VALID,1.03125,
2009-06-30, 03:44:04,VALID,1000.1,VALID,0,VALID,90.8154,VALID,0,VALID,22.0447,VALID,36,VALID,0.800781,
2009-06-30, 03:45:04,VALID,1000.09,VALID,0,VALID,91.6088,VALID,0,VALID,22.0252,VALID,42,VALID,0.877734,
2009-06-30, 03:46:04,VALID,1000.1,VALID,0,VALID,91.914,VALID,0,VALID,21.965,VALID,36,VALID,0.707812,